{"data":{"norad_id":52137,"intl_designator":"2022-029BB","name":"STARLINK-3733","alt_names":[],"object_type":"PAYLOAD","status":"ACTIVE","operator":null,"country":"US","launch_date":"2022-03-19","launch_site_code":"AFETR","launch_vehicle":null,"mission":null,"orbit_class":"UNKNOWN","rcs_meters":null,"size_class":null,"mass_kg":null,"dimensions":null,"purposes":["comms"],"wikipedia_slug":null,"has_3d_model":false,"image_url":null,"decayed_at":null,"tle_current":{"epoch":"2026-05-25T02:15:29.033856Z","epoch_age_seconds":62913,"freshness":"FRESH","line1":"1 52137U 22029BB  26145.09408604 -.00000292  00000+0 -27452-6 0  9992","line2":"2 52137  53.2143  86.1252 0001329  76.5417 283.5723 15.08843537232479","mean_motion":15.08843537,"eccentricity":0.0001329,"inclination_deg":53.2143,"raan_deg":86.1252,"arg_perigee_deg":76.5417,"mean_anomaly_deg":283.5723,"bstar":-2.7452e-7,"rev_number":23247,"period_min":95.437330955012,"perigee_km":538.81319292433,"apogee_km":540.65196265811,"semimajor_km":6917.8695777912,"source":"CELESTRAK","updated_at":"2026-05-25T13:38:17.078776Z"}}}